, LA

(GMT )
Salt Point

Weather History for KP92 - November, 2012

Change the Weather History Date:

Monday, November 5, 2012

  Actual Average Record
Temperature  
Mean Temperature 67 °F -  
Max Temperature 72 °F 71 °F 82 °F (2015)
Min Temperature 62 °F 55 °F 46 °F (2010)
Cooling Degree Days 2    
Growing Degree Days 17 (Base 50)    
Moisture  
Dew Point 63 °F    
Average Humidity 86    
Maximum Humidity 96    
Minimum Humidity 75    
Precipitation  
Precipitation 0.70 in - - ()
Sea Level Pressure  
Sea Level Pressure 30.01 in    
Wind  
Wind Speed 3 mph (SSW)    
Max Wind Speed 7 mph    
Max Gust Speed -    
Averages and records for this station are not official NWS values.
T = Trace of Precipitation, MM = Missing Value Source: NWS Daily Summary

Daily Weather History Graph

Daily Weather History Graph

Search for Another Location

Airport or City:

Trip Planner

Search our weather history database for the weather conditions in past years. The results will help you decide how hot, cold, wet, or windy it might be!

Date:

Astronomy

Nov. 05, 2012 Rise Set
Actual Time 6:21 AM CST 5:15 PM CST
Civil Twilight 5:57 AM CST 5:40 PM CST
Nautical Twilight 5:28 AM CST 6:08 PM CST
Astronomical Twilight 5:00 AM CST 6:36 PM CST
Moon 10:52 PM CST (11/5) 11:40 AM CST (11/5)
Length of Visible Light 11h 42m
Length of Day
10h 53m
Waning Gibbous, 62% of the Moon is Illuminated
Nov 5
Waning Gibbous
Nov 6
Last Quarter
Nov 13
New
Nov 20
First Quarter
Nov 28
Full

Hourly Weather History & Observations

Time (CST) Temp. Dew Point Humidity Pressure Visibility Wind Dir Wind Speed Gust Speed Precip Events Conditions
12:53 AM 63.0 °F 61.0 °F 93% 30.05 in - NE 3.5 mph - N/A   Unknown
1:53 AM 63.0 °F 61.0 °F 93% 30.04 in - Variable 3.5 mph - N/A   Unknown
2:53 AM 63.0 °F 61.0 °F 93% 30.04 in - East 3.5 mph - N/A   Unknown
3:53 AM 63.0 °F 61.0 °F 93% 30.04 in - Variable 3.5 mph - N/A   Unknown
4:53 AM 62.1 °F 61.0 °F 96% 30.05 in - Variable 3.5 mph - N/A   Unknown
5:53 AM 63.0 °F 61.0 °F 93% 30.06 in - Calm Calm - N/A   Unknown
6:53 AM 63.0 °F 61.0 °F 93% 30.06 in - Calm Calm - N/A   Unknown
7:53 AM 64.0 °F 61.0 °F 90% 30.07 in - Variable 3.5 mph - N/A   Unknown
8:53 AM 66.0 °F 61.0 °F 84% 30.08 in - Calm Calm - N/A   Unknown
9:53 AM 66.9 °F 61.0 °F 81% 30.07 in - SE 3.5 mph - N/A   Unknown
10:53 AM 68.0 °F 62.1 °F 81% 30.06 in - WSW 3.5 mph - N/A   Unknown
11:53 AM 70.0 °F 62.1 °F 76% 30.02 in - Variable 3.5 mph - N/A   Unknown
12:53 PM 70.0 °F 62.1 °F 76% 29.99 in - Variable 4.6 mph - N/A   Unknown
1:53 PM 71.1 °F 63.0 °F 75% 29.97 in - SW 4.6 mph - N/A   Unknown
2:53 PM 72.0 °F 64.0 °F 76% 29.96 in - Variable 4.6 mph - N/A   Unknown
3:53 PM 72.0 °F 64.9 °F 78% 29.95 in - Variable 3.5 mph - N/A   Unknown
4:53 PM 70.0 °F 64.9 °F 84% 29.94 in - Variable 4.6 mph - N/A   Unknown
5:53 PM 70.0 °F 66.0 °F 87% 29.94 in - SW 4.6 mph - N/A   Unknown
6:53 PM 71.1 °F 66.0 °F 84% 29.94 in - SW 6.9 mph - N/A   Unknown
7:53 PM 72.0 °F 66.9 °F 84% 29.94 in - Variable 4.6 mph - N/A   Unknown
8:53 PM 66.0 °F 62.1 °F 87% 29.96 in - Variable 5.8 mph - 0.70 in   Unknown
9:53 PM 66.9 °F 63.0 °F 87% 29.97 in - NNW 5.8 mph - N/A   Unknown
10:53 PM 66.0 °F 63.0 °F 90% 29.97 in - Calm Calm - N/A   Unknown
11:53 PM 64.0 °F 61.0 °F 90% 29.96 in - Calm Calm - N/A   Unknown